User: anonymous   Login
Location: Key Biscayne
(25.6930°N, 80.1630°W)
Time: 11:26:19
(UTC-04:00)
Language:

CZ-2D R/B - Orbit

View from above orbital plane
View from above orbital plane
View from above satellite
View from above satellite

Ground track
Ground track

The orbit data is extracted from the following two-line orbital elements,

1 28738U 05024B   14297.12551643  .00006508  00000-0  43367-3 0  8870
2 28738 097.6174 331.2346 0014731 082.9875 277.3028 15.07340975509881
Epoch (UTC): 24 October 2014 03:00:44
Eccentricity: 0.0014731
inclination: 97.6174°
perigee height: 534 km
apogee height: 554 km
right ascension of ascending node: 331.2346°
argument of perigee: 82.9875°
revolutions per day: 15.07340975
mean anomaly at epoch: 277.3028°
orbit number at epoch: 50988

The dashed part of the orbit path shows where the satellite is in the earth's shadow,  

DLR